Weather History for KPVD - May, 2012

Change the Weather History Date:

Wednesday, May 30, 2012

  Actual Average Record
Temperature  
Mean Temperature 70 °F 63 °F  
Max Temperature 77 °F 73 °F 94 °F (1929)
Min Temperature 62 °F 53 °F 37 °F (1970)
Degree Days  
Heating Degree Days 0 4  
Month to date heating degree days 147 221  
Since 1 July heating degree days 4544 5571  
Cooling Degree Days 5 2  
Month to date cooling degree days 42 19  
Year to date cooling degree days 50 21  
Growing Degree Days 20 (Base 50)    
Moisture  
Dew Point 62 °F    
Average Humidity 71    
Maximum Humidity 87    
Minimum Humidity 54    
Precipitation  
Precipitation T in 0.13 in 2.42 in (1948)
Month to date precipitation 4.24 3.42  
Year to date precipitation 13.94 19.94  
Snow  
Snow 0.00 in 0.00 in 0.00 in (2002)
Month to date snowfall 0.0 0.0  
Since 1 July snowfall 17.8 33.8  
Snow Depth 0.00 in    
Sea Level Pressure  
Sea Level Pressure 29.74 in    
Wind  
Wind Speed 5 mph (WSW)    
Max Wind Speed 10 mph    
Max Gust Speed 14 mph    
Visibility 10 miles    
Events Rain    
T = Trace of Precipitation, MM = Missing Value Source: NWS Daily Summary

Daily Weather History Graph

Daily Weather History Graph

Search for Another Location

Airport or City:

Trip Planner

Search our weather history database for the weather conditions in past years. The results will help you decide how hot, cold, wet, or windy it might be!

Date:

Astronomy

May. 30, 2012 Rise Set
Actual Time 5:14 AM EDT 8:12 PM EDT
Civil Twilight 4:41 AM EDT 8:46 PM EDT
Nautical Twilight 3:58 AM EDT 9:28 PM EDT
Astronomical Twilight 3:09 AM EDT 10:18 PM EDT
Moon 2:44 PM EDT (5/30) 1:42 AM EDT (5/30)
Length of Visible Light 16h 05m
Length of Day
14h 58m
Waxing Gibbous, 70% of the Moon is Illuminated
May 30
Waxing Gibbous
Jun 4
Full
Jun 11
Last Quarter
Jun 19
New
Jun 26
First Quarter

Hourly Weather History & Observations

Time (EDT) Temp. Dew Point Humidity Pressure Visibility Wind Dir Wind Speed Gust Speed Precip Events Conditions
12:51 AM 71.1 °F 63.0 °F 75% 29.75 in 10.0 mi Calm Calm - N/A   Mostly Cloudy
1:51 AM 68.0 °F 64.9 °F 90% 29.73 in 9.0 mi SSW 3.5 mph - N/A   Mostly Cloudy
2:51 AM 68.0 °F 64.9 °F 90% 29.72 in 10.0 mi WSW 4.6 mph - N/A   Mostly Cloudy
3:51 AM 68.0 °F 64.9 °F 90% 29.71 in 10.0 mi South 4.6 mph - N/A   Mostly Cloudy
4:51 AM 69.1 °F 64.0 °F 84% 29.71 in 10.0 mi West 4.6 mph - N/A   Mostly Cloudy
5:51 AM 70.0 °F 64.0 °F 81% 29.73 in 10.0 mi WSW 9.2 mph - N/A   Mostly Cloudy
6:51 AM 70.0 °F 63.0 °F 78% 29.75 in 10.0 mi West 9.2 mph - N/A   Mostly Cloudy
7:51 AM 70.0 °F 64.0 °F 81% 29.75 in 10.0 mi West 6.9 mph - N/A   Overcast
8:51 AM 71.1 °F 64.9 °F 81% 29.75 in 10.0 mi West 5.8 mph - 0.00 in   Overcast
9:51 AM 73.0 °F 63.0 °F 71% 29.75 in 10.0 mi WNW 3.5 mph - N/A   Mostly Cloudy
10:51 AM 75.0 °F 59.0 °F 57% 29.75 in 10.0 mi North 3.5 mph - N/A   Overcast
11:51 AM 75.9 °F 57.9 °F 54% 29.76 in 10.0 mi NNW 5.8 mph - N/A   Overcast
12:51 PM 75.0 °F 57.0 °F 53% 29.76 in 10.0 mi WNW 3.5 mph - N/A   Overcast
1:51 PM 75.0 °F 57.9 °F 55% 29.75 in 10.0 mi Calm Calm - 0.00 in Rain Light Rain
2:51 PM 75.9 °F 59.0 °F 56% 29.74 in 10.0 mi Variable 3.5 mph - 0.00 in   Overcast
3:51 PM 75.0 °F 59.0 °F 57% 29.74 in 10.0 mi South 4.6 mph - 0.00 in Rain Light Rain
4:51 PM 73.9 °F 63.0 °F 68% 29.70 in 10.0 mi SSE 5.8 mph - 0.00 in   Mostly Cloudy
5:51 PM 73.9 °F 64.9 °F 73% 29.72 in 10.0 mi South 6.9 mph - N/A   Mostly Cloudy
6:51 PM 73.9 °F 64.0 °F 71% 29.73 in 10.0 mi SSW 9.2 mph - N/A   Mostly Cloudy
7:51 PM 71.1 °F 60.1 °F 68% 29.75 in 10.0 mi SSW 6.9 mph - N/A   Overcast
8:51 PM 68.0 °F 60.1 °F 76% 29.75 in 10.0 mi SSW 3.5 mph - N/A   Mostly Cloudy
9:51 PM 68.0 °F 61.0 °F 78% 29.76 in 10.0 mi WNW 4.6 mph - N/A   Scattered Clouds
10:51 PM 64.9 °F 61.0 °F 87% 29.74 in 10.0 mi Calm Calm - N/A   Mostly Cloudy
11:51 PM 64.0 °F 60.1 °F 87% 29.74 in 10.0 mi South 3.5 mph - N/A   Mostly Cloudy